www.pogodaiklimat.ru

Погода и климат >> Архив погоды >> Самоа >> Le Mafa


ПОГОДА в Le Mafa

  • Прогноз погоды в Le Mafa
  • Монитор погоды в Le Mafa
  • Климат города

АРХИВ ПОГОДЫ в Le Mafa

Время (UTC), дата Ветер
(напр.,м/с)
 
Видим.   Явления Облачность Т
(С)
Тd
(С)
f
(%)
Тe
(С)
Тes
(С)
Комфортность P
(гПа)
Po
(гПа)
Тmin
(С)
Tmax
(С)
R
(мм)
R24
(мм)
S
(см)
21 18.05 СЗ 3 н/о н/о -40.0 0.0 100 -51 -51 опасность
обморожения
1025.0 982.3
00 19.05 З 1 н/о н/о -40.0 0.0 100 -45 -45 опасность
обморожения
1023.4 980.8 -40.0
03 19.05 СЗ 1 н/о н/о -40.0 0.0 100 -42 -42 опасность
обморожения
1021.5 978.9
06 19.05 штиль 0 н/о н/о -40.0 0.0 100 -40 -40 опасность
обморожения
1022.5 979.9
09 19.05 штиль 0 н/о н/о -40.0 0.0 100 -40 -40 опасность
обморожения
1024.1 981.4
12 19.05 ЮВ 1 н/о н/о -40.0 0.0 100 -42 -42 опасность
обморожения
1023.4 980.8 -40.0
21 19.05 СЗ 1 н/о н/о -40.0 0.0 100 -42 -42 опасность
обморожения
1023.9 981.2
00 20.05 СЗ 2 н/о н/о -40.0 0.0 100 -48 -48 опасность
обморожения
1023.3 980.7 -40.0
03 20.05 ЮВ 1 н/о н/о -40.0 0.0 100 -42 -42 опасность
обморожения
1021.3 978.8
06 20.05 штиль 0 н/о н/о -40.0 0.0 100 -40 -40 опасность
обморожения
1022.4 979.8
09 20.05 З 1 н/о н/о -40.0 0.0 100 -42 -42 опасность
обморожения
1024.1 981.4
21 20.05 штиль 0 н/о н/о -40.0 0.0 100 -40 -40 опасность
обморожения
1024.4 981.7
00 21.05 ЮВ 1 н/о н/о -40.0 0.0 100 -45 -45 опасность
обморожения
1022.3 979.7 -40.0
03 21.05 Ю 1 н/о н/о -40.0 0.0 100 -45 -45 опасность
обморожения
1021.0 978.5
06 21.05 ЮВ 1 н/о н/о -40.0 0.0 100 -42 -42 опасность
обморожения
1022.0 979.4
09 21.05 штиль 0 н/о н/о -40.0 0.0 100 -40 -40 опасность
обморожения
1023.4 980.8
12 21.05 СЗ 1 н/о н/о -40.0 0.0 100 -42 -42 опасность
обморожения
1022.9 980.3 -40.0
21 21.05 штиль 0 н/о н/о -40.0 0.0 100 -40 -40 опасность
обморожения
1024.4 981.7
00 22.05 СЗ 1 н/о н/о -40.0 0.0 100 -42 -42 опасность
обморожения
1022.3 979.7 -40.0 0.5
03 22.05 штиль 0 н/о н/о -40.0 0.0 100 -40 -40 опасность
обморожения
1020.7 978.2
06 22.05 штиль 0 н/о н/о -40.0 0.0 100 -40 -40 опасность
обморожения
1021.9 979.3
21 22.05 З 1 н/о н/о -40.0 0.0 100 -42 -42 опасность
обморожения
1023.5 980.9
00 23.05 СЗ 3 н/о н/о -40.0 0.0 100 -51 -51 опасность
обморожения
1021.6 979.0 -40.0
03 23.05 СЗ 2 н/о н/о -40.0 0.0 100 -49 -49 опасность
обморожения
1020.2 977.7
06 23.05 СЗ 1 н/о н/о -40.0 0.0 100 -42 -42 опасность
обморожения
1021.2 978.7
09 23.05 штиль 0 н/о н/о -40.0 0.0 100 -40 -40 опасность
обморожения
1022.5 979.9
12 23.05 СЗ 1 н/о н/о -40.0 0.0 100 -42 -42 опасность
обморожения
1021.7 979.1 -40.0
21 23.05 СЗ 1 н/о н/о -40.0 0.0 100 -45 -45 опасность
обморожения
1023.6 981.0
00 24.05 СЗ 2 н/о н/о -40.0 0.0 100 -49 -49 опасность
обморожения
1021.7 979.1 -40.0
06 24.05 штиль 0 н/о н/о -40.0 0.0 100 -40 -40 опасность
обморожения
1022.2 979.6
09 24.05 штиль 0 н/о н/о -40.0 0.0 100 -40 -40 опасность
обморожения
1023.4 980.8
12 24.05 штиль 0 н/о н/о -40.0 0.0 100 -40 -40 опасность
обморожения
1022.8 980.2 -40.0
21 24.05 СЗ 1 н/о н/о -40.0 0.0 100 -42 -42 опасность
обморожения
1024.8 982.1 0.5
00 25.05 СЗ 2 н/о н/о -40.0 0.0 100 -49 -49 опасность
обморожения
1022.6 980.0 -40.0
03 25.05 СЗ 1 н/о н/о -40.0 0.0 100 -45 -45 опасность
обморожения
1021.7 979.1
06 25.05 штиль 0 н/о н/о -40.0 0.0 100 -40 -40 опасность
обморожения
1022.6 980.0

 

Местоположение метеостанции Le Mafa (Самоа): широта -13.96 долгота -171.60 высота над уровнем моря 292 м.

В архиве по умолчанию представлена погода в Le Mafa за последнюю неделю. Архивные данные за месяц целиком и за предыдущие месяцы, начиная с января 2011 года, Вы можете получить, выбрав интересующий диапазон дат из раскрывающегося списка и нажав кнопку "Ввод!".


*Определитесь, кто Вы:
робот инопланетянин человек

Внимание! Время в таблицах - всемирное. Для получения местного времени необходимо прибавить поправку, которая в Le Mafa равна 13 ч.

Смотрите также архив погоды в соседних городах и на ближайших метеорологических станциях:

Погода в Lufi-Lufi (Самоа) (10 км)
Погода в Togitogiga (Самоа) (20 км)
Погода в Apia (Американское Самоа) (21 км)
Погода в Faleolo Int East (Самоа) (45 км)
Погода в Faleolo Int Airport (Американское Самоа) (46 км)
Погода в Faleolo Int Airport (Самоа) (48 км)
Погода в Manono (Самоа) (56 км)
Погода в Maota Int Airport (Самоа) (75 км)
Погода в Le Piu Tai (Самоа) (102 км)
Погода в Mount Talu (Самоа) (129 км)

Пояснения к столбцам:

Ветер - указаны скорость ветра в м/с - средняя за 10 мин, порывы в срок и между сроками (в фигурных скобках) и направление, откуда дует ветер: С - северный, СВ - северо-восточный, В - восточный, ЮВ - юго-восточный, Ю - южный, ЮЗ - юго-западный, З - западный, СЗ - северо-западный.
Видимость - горизонтальная дальность видимости в метрах или километрах. При видимости от 1 до 10 км при отсутствии осадков обычно наблюдается дымка, при ухудшении видимости до 1 км и менее - туман. В сухую погоду видимость может ухудшаться дымом, пылью или мглою.
Явления - указаны атмосферные явления, наблюдавшиеся в срок или в последний час перед сроком; фигурными скобками обозначены явления, наблюдавшиеся между сроками (за 1-3 часа до срока); квадратными скобками обозначены град или гололедные отложения с указанием их диаметра в мм.
Облачность - указаны через наклонную черту общая и нижняя облачность в баллах и высота нижней границы облаков в метрах; квадратными скобками обозначены формы облаков: Ci - перистые, Cs - перисто-слоистые, Cc - перисто-кучевые, Ac - высококучевые, As - высокослоистые, Sc - слоисто-кучевые, Ns - слоисто-дождевые, Cu - кучевые, Cb - кучево-дождевые. Подробнее классификацию облаков см. в Атласе облаков (PDF).
T - Температура воздуха - температура, измеренная на высоте 2 м над землей.
Td - Температура точки росы - температура, при понижении до которой содержащийся в воздухе водяной пар достигнет насыщения.
f - Относительная влажность воздуха - влажноcть воздуха, измеренная на высоте 2 м над землей.
Te - Эффективная температура - температура, которую ощущает одетый по сезону человек в тени. Характеристика душности погоды. При расчете учитывается влияние влажности воздуха и скорости ветра на теплоощущения человека.
Tes - Эффективная температура на солнце - температура, которую ощущает человек, с поправкой на солнечный нагрев. Характеристика знойности погоды. Зависит от высоты солнца над горизонтом, облачности и скорости ветра. Ночью, в пасмурную погоду, а также при ветре 12 м/с и более поправка равна нулю.
P - Атмосферное давление - приведенное к уровню моря атмосферное давление.
Po - Атмосферное давление - измеренное на уровне метеостанции атмосферное давление.
Tmin - Минимальная температура - минимум температуры воздуха на высоте 2 м над землей.
Tmax - Максимальная температура - максимум температуры воздуха на высоте 2 м над землей.
R - Количество осадков - Количество выпавших осадков за период времени, мм. При наведении курсора мыши на число - период времени, за который выпало указанное количество осадков.
R24 - Количество осадков - Количество выпавших осадков за 24 часа, мм.
S - Снежный покров - Высота снежного покрова, см. При наведении курсора мыши на число - состояние снежного покрова и степень покрытия местности в баллах.